Regional Weather Roundup
Issued by NWS

Home | Current Version | Previous Version | Text Only | Print | Product List | Glossary On
Versions: 1 2 3 4 5 6 7 8 9 10 11 12 13 14 15 16 17 18 19 20 21 22 23 24 25 26 27 28 29 30 31 32 33 34 35 36 37 38 39 40 41 42 43 44 45 46 47 48 49 50
373
ASUS43 KDTX 201310
RWRMI
MICHIGAN HOURLY REGIONAL WEATHER ROUNDUP
NATIONAL WEATHER SERVICE DETROIT/PONTIAC MI
800 AM EST FRI JAN 20 2017

NOTE: "FAIR" INDICATES FEW OR NO CLOUDS BELOW 12,000 FEET WITH NO
SIGNIFICANT WEATHER AND/OR OBSTRUCTION TO VISIBILITY.

MIZ047>049-052>055-059>063-066>070-074>076-081>083-201400-
SOUTHEAST LOWER MICHIGAN

CITY           SKY/WX    TMP DP  RH WIND       PRES   REMARKS
ADRIAN         LGT RAIN  33  33 100 E9        29.65S FOG     WCI  25
ALMA           CLOUDY    32  32  99 NE6       29.69S FOG     WCI  26
ANN ARBOR      LGT RAIN  34  34 100 NE6       29.66R FOG     WCI  29
BAD AXE        FOG       32  32 100 E5        29.73F VSB 1/2 WCI  27
CARO           CLOUDY    32  32 100 NE6       29.70F FOG     WCI  26
DETROIT CITY   LGT RAIN  34  34 100 E13       29.68F FOG     WCI  25
DETROIT        RAIN      35  34  96 E6        29.69R FOG     WCI  30
FLINT          CLOUDY    33  32  96 E9        29.67F WCI  25
GROSSE ILE     LGT RAIN  35  34  97 E10       29.65S WCI  27
HILLSDALE      MIX PCPN  32  32 100 E9        29.60F WCI  24
HOWELL         LGT RAIN  33  32  95 E3        29.66R

CITY           SKY/WX    TMP DP  RH WIND       PRES   REMARKS
JACKSON        MIX PCPN  34  32  92 E7        29.64F FOG     WCI  28
LAMBERTVILLE   LGT RAIN  36  34  94 E5        29.65S WCI  32
LANSING        LGT RAIN  34  32  92 NE6       29.68R FOG     WCI  29
LAPEER         CLOUDY    32  32 100 E6        29.69F FOG     WCI  27
MASON          LGT RAIN  33  33  99 NE5       29.66S WCI  29
MONROE         LGT RAIN  36  36 100 E6        29.67R WCI  31
MT. CLEMENS    DRIZZLE   33  33 100 E12       29.67F FOG     WCI  25
PONTIAC        LGT RAIN  32  30  92 E9        29.65F FOG     WCI  24
PORT HOPE        N/A     33  33 100 SE12      29.74F WCI  24
PORT HURON     CLOUDY    32  32 100 E8        29.72F FOG     WCI  25
TRI CITIES     FOG       32  32 100 NE10      29.71F VSB 1/4 WCI  24
MIDLAND        CLOUDY    32  31  96 NE7       29.71F FOG     WCI  26
TROY           LGT RAIN  34  33  96 E9        29.69F WCI  27
SAGINAW HB     FOG       32  32 100 NE10      29.70F VSB 1   WCI  24
$$
MIZ043>046-050>051-056>058-064>065-071>073-077>080-201400-
SOUTHWEST LOWER MICHIGAN

CITY           SKY/WX    TMP DP  RH WIND       PRES   REMARKS
BATTLE CREEK   LGT RAIN  36  35  96 NE7       29.63F FOG     WCI  30
BENTON HARBOR  CLOUDY    39  36  89 NE5       29.62F FOG
BIG RAPIDS     MIX PCPN  32  31  95 CALM      29.69S
COLDWATER      LGT RAIN  36  36 100 E6        29.61F WCI  31
FREMONT        LGT RAIN  34  34 100 NE5       29.68F WCI  30
HOLLAND        LGT RAIN  36  34  92 NE7       29.66F WCI  30
GRAND RAPIDS   LGT RAIN  34  32  92 NE8       29.67F FOG     WCI  27
IONIA          MIX PCPN  32  32 100 NE5       29.67S WCI  27
KALAMAZOO      LGT RAIN  37  34  89 NE5       29.63F FOG     WCI  33
LUDINGTON      CLOUDY    33  33 100 CALM      29.70S FOG
MARSHALL       LGT RAIN  35  34  98 NE3       29.63S
MOUNT PLEASANT MIX PCPN  32  31  99 NE6       29.70S WCI  26
MUSKEGON       LGT RAIN  36  34  92 E7        29.68S FOG     WCI  30
SOUTH HAVEN    LGT RAIN  37  36  98 NE5       29.63F WCI  33
$$
MIZ016>042-201400-
NORTHERN LOWER MICHIGAN

CITY           SKY/WX    TMP DP  RH WIND       PRES   REMARKS
ALPENA         FOG       32  31  96 SE8       29.78R VSB 3/4 WCI  25
BEAVER ISLAND  FOG       31  31 100 E8        29.74S VSB 1/4 WCI  24
BELLAIRE       CLOUDY    31  31  99 CALM      29.73F FOG
CADILLAC       CLOUDY    33  32  96 E6        29.69S FOG     WCI  27
CHARLEVOIX     PTCLDY    32  32 100 SE3       29.76S FOG
FRANKFORT      CLOUDY    33  33  99 CALM      29.71F FOG
GAYLORD        CLOUDY    32  28  85 CALM      29.71S FOG
GRAYLING       FOG       32  32  99 E6        29.73S VSB 1   WCI  26
HARBOR SPRINGS FOG       31  31 100 E8        29.74R VSB 3/4 WCI  24
HOUGHTON LAKE  CLOUDY    31  30  96 E6        29.72S FOG     WCI  25
MANISTEE       MOCLDY    34  32  92 E5        29.71F FOG     WCI  30
OSCODA         CLOUDY    34  33  97 SE9       29.77S FOG     WCI  27
PELLSTON       FOG       32  30  92 SE7       29.76R VSB 1/2 WCI  26
ROGERS CITY    CLOUDY    32  31  96 SE6       29.78S FOG     WCI  26
TRAVERSE CITY  CLOUDY    32  31  96 CALM      29.72R FOG
$$
MIZ007>008-015-201400-
EASTERN UPPER MICHIGAN

CITY           SKY/WX    TMP DP  RH WIND       PRES   REMARKS
KINROSS        MIX PCPN  32  32 100 E12       29.76S FOG     WCI  23
MACKINAC ISLAN FOG       32  32 100 E7        29.76R VSB 1/2 WCI  26
NEWBERRY       FOG       32  31  97 SE6       29.74R VSB 1/2 WCI  26
S. S. MARIE    FOG       34  32  92 E5        29.77R VSB 1   WCI  30
MUNISING         N/A     34  34 100 S6        29.73R WCI  29
$$
MIZ004>006-011>014-085-201400-
CENTRAL UPPER MICHIGAN

CITY           SKY/WX    TMP DP  RH WIND       PRES   REMARKS
MANISTIQUE     FOG       32  31  97 E7        29.74S VSB 3/4 WCI  25
ESCANABA       FOG       32  32 100 CALM      29.74S VSB 1/4
SAWYER-GWINN   FOG       27  25  93 S5        29.71R VSB 3/4 WCI  21
$$
MIZ001>003-009>011-084-201400-
WESTERN UPPER MICHIGAN

CITY           SKY/WX    TMP DP  RH WIND       PRES   REMARKS
IRON MOUNTAIN  CLOUDY    30  27  88 CALM      29.70S FOG
HOUGHTON       CLEAR     24  23  96 CALM      29.68S
COPPER HARBOR    N/A     29  27  92 W8        29.70S WCI  21
IRONWOOD       CLOUDY    32  29  88 SW3       29.69R
$$

ABBREVIATIONS USED IN REMARKS
   TC - TEMPERATURE IN CELSIUS
  WCI - WIND CHILL INDEX
   HX - HEAT INDEX
  VSB - VISIBILITY





USA.gov is the U.S. government's official web portal to all federal, state and local government web resources and services.